Location: Nelson
(47.1935°N, 121.0537°W)
Time: 07:23:28
(UTC+00:00)

BlueWalker 3 - Pass Details

Date: 09 December 2022
Orbit: 499 x 517 km, 53.2° (Epoch: 27 January)

Event Time Altitude Azimuth Distance (km) Brightness Sun altitude
Rises 01:07:19 0° 297° (WNW) 2,638 6.2 -8.7°
Reaches altitude 10° 01:09:35 10° 303° (WNW) 1,745 5.2 -9.1°
Maximum altitude 01:13:26 50° 19° (NNE) 663 2.3 -9.7°
Enters shadow 01:17:02 11° 95° (E) 1,647 4.0 -10.2°
